Weather History for KVCB - October, 2013

Change the Weather History Date:

Thursday, October 31, 2013

  Actual Average (KAPC) Record (KAPC)
Temperature  
Mean Temperature 56 °F 55 °F  
Max Temperature 73 °F 70 °F 79 °F (2011)
Min Temperature 39 °F 41 °F 30 °F (2002)
Degree Days  
Heating Degree Days 9    
Month to date heating degree days  
Since 1 July heating degree days  
Cooling Degree Days 0    
Month to date cooling degree days  
Year to date cooling degree days  
Growing Degree Days 6 (Base 50)    
Moisture  
Dew Point 40 °F    
Average Humidity 64    
Maximum Humidity 93    
Minimum Humidity 30    
Precipitation  
Precipitation 0.00 in - - ()
Month to date precipitation  
Year to date precipitation  
Since 1 July precipitation  
Sea Level Pressure  
Sea Level Pressure 30.13 in    
Wind  
Wind Speed 0 mph (South)    
Max Wind Speed 5 mph    
Max Gust Speed -    
Visibility 10 miles    
Events      
T = Trace of Precipitation, MM = Missing Value Source: NWS Daily Summary

Daily Weather History Graph

Daily Weather History Graph

Search for Another Location

Airport or City:

Trip Planner

Search our weather history database for the weather conditions in past years. The results will help you decide how hot, cold, wet, or windy it might be!

Date:

Astronomy

Oct. 31, 2013 Rise Set
Actual Time 7:33 AM PDT 6:08 PM PDT
Civil Twilight 7:06 AM PDT 6:36 PM PDT
Nautical Twilight 6:34 AM PDT 7:07 PM PDT
Astronomical Twilight 6:03 AM PDT 7:38 PM PDT
Moon 4:30 AM PDT (10/31) 4:28 PM PDT (10/31)
Length of Visible Light 11h 30m
Length of Day
10h 35m
Waning Crescent, 9% of the Moon is Illuminated
Oct 31
Waning Crescent
Nov 3
New
Nov 9
First Quarter
Nov 17
Full
Nov 25
Last Quarter

Hourly Weather History & Observations

Time (PDT) Temp. Dew Point Humidity Pressure Visibility Wind Dir Wind Speed Gust Speed Precip Events Conditions
12:53 AM 48.0 °F 41.0 °F 77% 30.13 in 10.0 mi Calm Calm - N/A   Clear
1:53 AM 44.1 °F 39.0 °F 82% 30.13 in 10.0 mi Calm Calm - N/A   Clear
2:53 AM 42.1 °F 39.9 °F 92% 30.13 in 10.0 mi Calm Calm - N/A   Clear
3:53 AM 42.1 °F 37.9 °F 85% 30.13 in 10.0 mi Calm Calm - N/A   Clear
4:53 AM 39.9 °F 37.9 °F 93% 30.13 in 10.0 mi Calm Calm - N/A   Clear
5:53 AM 41.0 °F 39.0 °F 93% 30.15 in 10.0 mi Calm Calm - N/A   Clear
6:53 AM 39.9 °F 37.9 °F 93% 30.15 in 10.0 mi Calm Calm - N/A   Clear
7:53 AM 41.0 °F 39.0 °F 93% 30.16 in 9.0 mi Calm Calm - N/A   Clear
8:53 AM 50.0 °F 42.1 °F 74% 30.19 in 10.0 mi Calm Calm - N/A   Clear
9:53 AM 55.9 °F 43.0 °F 62% 30.19 in 10.0 mi Calm Calm - N/A   Clear
10:53 AM 61.0 °F 43.0 °F 52% 30.18 in 10.0 mi Calm Calm - N/A   Clear
11:53 AM 64.0 °F 43.0 °F 46% 30.17 in 10.0 mi Variable 4.6 mph - N/A   Clear
12:53 PM 68.0 °F 42.1 °F 39% 30.16 in 10.0 mi Variable 4.6 mph - N/A   Clear
1:53 PM 70.0 °F 42.1 °F 36% 30.12 in 10.0 mi Calm Calm - N/A   Clear
2:53 PM 72.0 °F 42.1 °F 34% 30.10 in 10.0 mi Calm Calm - N/A   Clear
3:53 PM 72.0 °F 39.9 °F 31% 30.09 in 10.0 mi Calm Calm - N/A   Clear
4:53 PM 73.0 °F 39.9 °F 30% 30.08 in 10.0 mi East 3.5 mph - N/A   Clear
5:53 PM 66.9 °F 39.0 °F 36% 30.08 in 10.0 mi Calm Calm - N/A   Clear
6:53 PM 57.0 °F 39.0 °F 51% 30.09 in 10.0 mi Calm Calm - N/A   Clear
7:53 PM 55.0 °F 41.0 °F 59% 30.10 in 10.0 mi Calm Calm - N/A   Clear
8:53 PM 51.1 °F 39.9 °F 66% 30.10 in 10.0 mi Calm Calm - N/A   Clear
9:53 PM 50.0 °F 39.0 °F 66% 30.11 in 10.0 mi Calm Calm - N/A   Clear
10:53 PM 48.9 °F 39.9 °F 71% 30.12 in 10.0 mi West 3.5 mph - N/A   Clear
11:53 PM 46.0 °F 39.0 °F 76% 30.11 in 10.0 mi Calm Calm - N/A   Clear